Date String (YYYY-MM-DD hh:mm:ss) UTC,Instrument flags,Ambient pressure (hPa),Sample flow (lpm),Bypass flow (lpm),Sample temperature (°C),Ambient temperature (°C),ASC tube jacket temperature (°C),LED temperature (°C),Box temperature (°C),Sample RH (%),Span deviation,Mass concentration (μg/m³),Mass concentration (μg/m³),Mass concentration (μg/m³)
DateTimeUTC,F1_M11,P_M11,Q1_M11,Q2_M11,T1_M11,T2_M11,T3_M11,T4_M11,T5_M11,U1_M11,ZSPAN_M11,X0_M11,X2_M11,X1_M11
2022-01-16 17:00:00,,0827.1,4.99,0.00,23.9,23.2,00.0,32.7,25.8,04.7,0000.0,0004.39,0002.19,0001.93
2022-01-16 17:01:00,,0827.1,5.01,0.00,23.9,23.2,00.0,32.8,25.8,04.9,0000.0,0004.39,0002.19,0001.94
2022-01-16 17:02:00,,0827.1,4.99,0.00,23.9,23.3,00.0,32.8,25.8,04.8,0000.0,0004.50,0002.22,0001.93
2022-01-16 17:03:00,,0827.2,5.01,0.00,24.0,23.3,00.0,32.8,25.8,04.7,0000.0,0003.62,0002.24,0001.92
2022-01-16 17:04:00,,0827.2,4.98,0.00,24.0,23.3,00.0,32.8,25.9,04.8,0000.0,0002.91,0002.23,0001.91
2022-01-16 17:05:00,,0827.1,5.01,0.00,24.0,23.3,00.0,32.8,25.9,04.8,0000.0,0002.89,0002.21,0001.91
2022-01-16 17:06:00,,0827.1,5.00,0.00,24.0,23.3,00.0,32.8,25.9,05.1,0000.0,0002.97,0002.22,0001.91
2022-01-16 17:07:00,,0827.1,5.00,0.00,24.0,23.3,00.0,32.9,25.9,05.0,0000.0,0003.04,0002.23,0001.91
2022-01-16 17:08:00,,0827.2,5.01,0.00,24.0,23.4,00.0,32.9,25.9,04.9,0000.0,0003.22,0002.23,0001.91
2022-01-16 17:09:00,,0827.2,4.99,0.00,24.1,23.4,00.0,32.9,26.0,04.6,0000.0,0004.41,0002.22,0001.90
2022-01-16 17:10:00,,0827.1,4.99,0.00,24.1,23.4,00.0,32.9,26.0,04.6,0000.0,0004.65,0002.20,0001.90
2022-01-16 17:11:00,,0827.1,5.00,0.00,24.1,23.4,00.0,32.9,26.0,04.7,0000.0,0005.31,0002.20,0001.91
2022-01-16 17:12:00,,0827.1,4.99,0.00,24.1,23.4,00.0,32.9,26.0,04.9,0000.0,0005.34,0002.22,0001.92
2022-01-16 17:13:00,,0827.1,5.01,0.00,24.1,23.5,00.0,32.9,26.0,04.9,0000.0,0005.27,0002.20,0001.93
2022-01-16 17:14:00,,0827.1,4.99,0.00,24.1,23.5,00.0,33.0,26.0,04.8,0000.0,0005.57,0002.18,0001.95
2022-01-16 17:15:00,,0827.1,5.00,0.00,24.2,23.5,00.0,33.0,26.0,04.8,0000.0,0005.74,0002.17,0001.95
2022-01-16 17:16:00,,0827.1,5.01,0.00,24.2,23.5,00.0,33.0,26.1,04.7,0000.0,0005.69,0002.15,0001.94
2022-01-16 17:17:00,,0827.0,4.99,0.00,24.2,23.6,00.0,33.0,26.1,05.0,0000.0,0006.12,0002.16,0001.93
2022-01-16 17:18:00,,0827.0,5.02,0.00,24.3,23.6,00.0,33.0,26.1,04.9,0000.0,0006.89,0002.14,0001.93
2022-01-16 17:19:00,,0827.0,4.99,0.00,24.3,23.6,00.0,33.1,26.2,04.6,0000.0,0006.83,0002.13,0001.92
2022-01-16 17:20:00,,0827.0,4.99,0.00,24.3,23.6,00.0,33.1,26.2,04.5,0000.0,0005.43,0002.11,0001.90
2022-01-16 17:21:00,,0827.0,5.00,0.00,24.3,23.6,00.0,33.1,26.3,04.5,0000.0,0005.18,0002.07,0001.88
2022-01-16 17:22:00,,0827.0,5.00,0.00,24.4,23.6,00.0,33.1,26.3,04.5,0000.0,0004.34,0002.01,0001.84
2022-01-16 17:23:00,,0827.0,5.01,0.00,24.4,23.6,00.0,33.2,26.3,04.6,0000.0,0004.35,0001.99,0001.80
2022-01-16 17:24:00,,0827.0,4.99,0.00,24.4,23.7,00.0,33.2,26.3,04.8,0000.0,0004.54,0001.98,0001.77
2022-01-16 17:25:00,,0827.0,4.99,0.00,24.4,23.7,00.0,33.2,26.3,04.6,0000.0,0004.14,0001.97,0001.75
2022-01-16 17:26:00,,0826.9,5.01,0.00,24.5,23.7,00.0,33.2,26.3,04.6,0000.0,0004.07,0001.98,0001.73
2022-01-16 17:27:00,,0826.9,5.00,0.00,24.5,23.8,00.0,33.2,26.4,04.8,0000.0,0004.09,0001.98,0001.73
2022-01-16 17:28:00,,0827.0,5.00,0.00,24.5,23.8,00.0,33.3,26.4,04.8,0000.0,0003.90,0002.00,0001.73
2022-01-16 17:29:00,,0826.9,5.00,0.00,24.5,23.8,00.0,33.3,26.4,04.8,0000.0,0002.77,0001.98,0001.72
2022-01-16 17:30:00,,0826.9,5.01,0.00,24.5,23.8,00.0,33.3,26.5,04.7,0000.0,0002.80,0001.97,0001.71
2022-01-16 17:31:00,,0826.9,4.99,0.00,24.6,23.8,00.0,33.3,26.5,04.8,0000.0,0002.78,0001.95,0001.70
2022-01-16 17:32:00,,0826.9,5.00,0.00,24.6,23.9,00.0,33.4,26.5,04.6,0000.0,0002.74,0001.93,0001.67
2022-01-16 17:33:00,,0826.9,5.01,0.00,24.6,23.9,00.0,33.4,26.5,04.5,0000.0,0002.73,0001.94,0001.69
2022-01-16 17:34:00,,0827.0,4.99,0.00,24.6,23.9,00.0,33.4,26.6,04.6,0000.0,0002.68,0001.93,0001.69
2022-01-16 17:35:00,,0826.8,5.02,0.00,24.7,24.0,00.0,33.4,26.6,04.7,0000.0,0002.60,0001.93,0001.69
2022-01-16 17:36:00,,0827.0,4.99,0.00,24.7,24.0,00.0,33.5,26.6,04.7,0000.0,0002.59,0001.94,0001.69
2022-01-16 17:37:00,,0826.9,5.01,0.00,24.7,24.0,00.0,33.5,26.6,04.5,0000.0,0002.52,0001.92,0001.67
2022-01-16 17:38:00,,0826.8,5.01,0.00,24.7,24.0,00.0,33.5,26.7,04.6,0000.0,0002.52,0001.91,0001.67
2022-01-16 17:39:00,,0826.8,4.99,0.00,24.7,24.0,00.0,33.5,26.7,04.6,0000.0,0002.44,0001.87,0001.65
2022-01-16 17:40:00,,0826.8,5.00,0.00,24.8,24.0,00.0,33.5,26.7,04.8,0000.0,0002.48,0001.85,0001.64
2022-01-16 17:41:00,,0826.7,5.01,0.00,24.8,24.1,00.0,33.6,26.7,04.6,0000.0,0002.45,0001.85,0001.65
2022-01-16 17:42:00,,0826.7,4.98,0.00,24.8,24.1,00.0,33.6,26.7,04.5,0000.0,0002.47,0001.85,0001.66
2022-01-16 17:43:00,,0826.7,5.01,0.00,24.8,24.1,00.0,33.6,26.7,04.6,0000.0,0002.53,0001.86,0001.66
2022-01-16 17:44:00,,0826.7,4.97,0.00,24.8,24.1,00.0,33.6,26.7,04.6,0000.0,0002.52,0001.85,0001.66
2022-01-16 17:45:00,,0826.7,5.01,0.00,24.8,24.1,00.0,33.6,26.7,04.5,0000.0,0002.58,0001.86,0001.66
2022-01-16 17:46:00,,0826.7,4.98,0.00,24.9,24.1,00.0,33.7,26.8,04.5,0000.0,0002.44,0001.83,0001.65
2022-01-16 17:47:00,,0826.6,5.01,0.00,24.9,24.1,00.0,33.7,26.8,04.1,0000.0,0002.39,0001.80,0001.64
2022-01-16 17:48:00,,0826.6,5.00,0.00,24.9,24.1,00.0,33.7,26.8,04.2,0000.0,0002.32,0001.75,0001.60
2022-01-16 17:49:00,,0826.6,5.00,0.00,24.9,24.2,00.0,33.7,26.8,04.2,0000.0,0002.21,0001.69,0001.56
2022-01-16 17:50:00,,0826.6,4.99,0.00,24.9,24.2,00.0,33.7,26.8,04.3,0000.0,0002.59,0001.65,0001.50
2022-01-16 17:51:00,,0826.5,5.01,0.00,24.9,24.2,00.0,33.7,26.8,04.5,0000.0,0003.31,0001.60,0001.45
2022-01-16 17:52:00,,0826.5,5.00,0.00,25.0,24.2,00.0,33.8,26.9,04.6,0000.0,0003.26,0001.56,0001.41
2022-01-16 17:53:00,,0826.5,5.00,0.00,25.0,24.2,00.0,33.8,26.9,04.4,0000.0,0003.28,0001.53,0001.37
2022-01-16 17:54:00,,0826.5,4.99,0.00,25.0,24.2,00.0,33.8,26.9,04.8,0000.0,0003.29,0001.52,0001.34
2022-01-16 17:55:00,,0826.5,5.01,0.00,25.0,24.2,00.0,33.8,26.9,04.7,0000.0,0003.26,0001.49,0001.30
2022-01-16 17:56:00,,0826.5,4.99,0.00,25.0,24.3,00.0,33.8,26.9,04.8,0000.0,0003.23,0001.44,0001.26
2022-01-16 17:57:00,,0826.5,5.01,0.00,25.1,24.3,00.0,33.8,27.0,04.9,0000.0,0003.28,0001.43,0001.23
2022-01-16 17:58:00,,0826.5,5.00,0.00,25.1,24.3,00.0,33.9,27.0,04.9,0000.0,0003.22,0001.39,0001.20
2022-01-16 17:59:00,,0826.5,5.01,0.00,25.1,24.3,00.0,33.9,27.0,05.3,0000.0,0003.20,0001.37,0001.19
